User: anonymous   Login
Location: Camaret
(48.2753°N, 4.5961°W)
Time: 23:31:04
(UTC+00:00)
Language:

Hubble Space Telescope - Orbit

View from above orbital plane
View from above orbital plane
View from above satellite
View from above satellite

Ground track
Ground track

The orbit data is extracted from the following two-line orbital elements,

1 20580U 90037B   21060.36765272  .00000588  00000-0  24697-4 0  9994
2 20580  28.4705  60.2150 0002574 344.0956 154.2907 15.09568778494748
Epoch (UTC): 01 March 2021 08:49:25
Eccentricity: 0.0002574
inclination: 28.4705°
perigee height: 536 km
apogee height: 539 km
right ascension of ascending node: 60.2150°
argument of perigee: 344.0956°
revolutions per day: 15.09568778
mean anomaly at epoch: 154.2907°
orbit number at epoch: 49474

The dashed part of the orbit path shows where the satellite is in the earth's shadow,  

DLR